Location: *
(49.5667°N, 1.3667°W)
Time: 15:55:11
(UTC+00:00)

Meteor 1-4 Rocket - Pass Details

Date: 20 September 2019
Orbit: 449 x 504 km, 81.2° (Epoch: 22 October)

Event Time Altitude Azimuth Distance (km) Brightness Sun altitude
Rises 18:54:21 0° 357° (N) 2,527 6.4 -8.2°
Reaches altitude 10° 18:56:41 10° 9° (N) 1,634 5.3 -8.6°
Maximum altitude 18:59:48 28° 70° (ENE) 911 3.5 -9.0°
Enters shadow 19:02:43 11° 130° (SE) 1,552 4.6 -9.5°
